CAPE
1201 1298 1315 1282 1255 1361 1338 1275 1148 878 776 736 648 534 478 512 516 531 579 571 518 600 817 884 932 1001 1118 1312 1327 1375 1424 1490 1396 1369 1460 1443 1192 1321 1308 1299 1253 1159 1228 1037 912 936 922 885 758 615 656 680 670 528 597 534 478 365 90 40 42 205 381 446 587 444 364 315 358 400 320 322 753 61 180 337 303 276 16 1 0 48 1 314 476
1320 1427 1459 1446 1455 1424 1360 1307 1072 842 765 691 634 633 654 723 686 677 666 606 722 881 1039 1153 1255 1227 1303 1495 1321 1199 958 1189 1035 816 876 946 1211 1482 1424 1392 1212 1099 1064 964 988 1083 985 788 490 597 772 835 737 664 727 650 582 509 368 117 401 407 341 400 513 458 309 293 327 326 286 197 4 60 145 232 392 178 52 52 0 0 7 18 125
1471 1579 1548 1528 1481 1393 1388 1221 906 836 733 747 778 855 937 936 854 791 736 709 852 1040 1160 1261 1300 1180 1078 1110 916 683 813 1008 785 797 1025 1182 1354 1370 1227 1239 1116 1059 1006 991 1094 1180 956 634 505 710 866 1092 1062 884 835 781 728 647 582 392 409 585 704 669 455 832 316 282 286 278 278 217 134 0 60 89 247 212 0 0 0 0 64 12 0
1596 1601 1542 1478 1441 1403 1276 976 858 849 835 863 948 1072 1146 1128 994 883 843 779 799 927 984 1074 1150 1017 736 695 621 587 736 733 861 968 1117 1250 1331 1302 1242 1158 1083 1128 1173 1004 974 976 946 736 928 1109 1213 1248 1206 964 831 816 828 761 702 569 515 659 722 697 575 698 100 0 202 286 224 211 147 109 67 3 7 0 0 0 0 3 3 0 0
1557 1567 1518 1464 1399 1332 1070 905 878 913 908 951 1094 1258 1272 1250 1113 952 901 924 947 1032 1237 1084 697 470 353 328 454 633 762 894 926 914 1007 1181 1248 1245 1254 1185 1143 1109 1072 1003 856 793 592 661 765 988 1152 1268 1187 1027 783 764 946 884 808 622 533 620 693 684 592 594 278 605 238 159 38 147 154 0 0 0 0 0 0 0 80 0 0 0 0
1500 1563 1494 1419 1331 1216 984 935 939 922 927 1002 1211 1380 1453 1451 1296 1056 975 1156 1285 1139 610 310 225 244 203 333 548 635 712 770 819 888 902 848 780 721 828 862 809 751 771 740 643 594 604 548 530 654 835 992 1147 1109 868 958 859 876 832 687 594 609 649 654 580 517 515 540 747 400 32 146 66 0 0 0 0 0 0 0 0 0 0 0 0
1548 1512 1443 1358 1222 1138 1031 1035 1026 974 988 1079 1235 1407 1540 1591 1489 1107 1032 1197 1054 354 45 252 282 295 360 437 515 574 577 568 669 787 783 724 650 544 495 518 534 558 558 543 594 551 521 501 515 646 756 1041 1141 992 1002 1101 972 942 850 776 597 571 647 650 611 496 552 518 645 711 698 416 0 0 0 0 0 0 0 0 0 0 0 0 0
1510 1486 1428 1328 1202 1068 1048 1065 1116 1006 1031 1125 1267 1376 1398 1406 1177 728 705 675 315 9 287 335 370 383 383 426 473 486 333 312 455 508 523 590 550 490 432 389 421 473 457 446 514 548 584 626 581 654 680 876 1244 1083 1029 1126 1092 1138 1158 906 701 519 512 607 639 484 507 438 510 390 110 0 0 0 0 0 0 0 0 0 0 0 0 0 0
1514 1535 1500 1356 1219 1116 1034 1014 1078 1056 1003 1110 1251 1238 1237 1152 770 474 418 399 260 35 241 277 252 268 274 215 110 38 190 377 384 398 498 523 464 418 410 404 427 437 394 364 440 552 717 778 664 607 475 589 810 1247 1081 1051 957 832 745 661 634 588 490 502 454 442 389 437 416 326 198 80 3 1 0 0 0 0 0 0 0 0 0 0 0
1554 1597 1588 1432 1303 1148 1030 950 1038 1071 988 1101 1197 1156 1070 963 591 480 412 362 82 53 143 169 115 201 95 68 86 145 236 209 130 29 98 242 266 182 0 0 0 98 334 383 354 334 213 248 375 456 431 560 652 798 1245 1138 958 737 604 630 536 377 145 478 394 303 277 423 431 414 252 148 11 7 2 0 0 0 1 0 0 0 0 0 56
1619 1668 1632 1505 1423 1254 1207 1217 1133 1015 978 1054 1062 1066 868 686 665 594 550 560 404 392 561 380 342 266 112 52 0 15 0 68 17 0 0 0 27 0 0 0 0 0 0 0 0 0 0 0 0 0 50 472 466 440 668 951 995 754 572 572 588 447 435 301 363 390 488 499 425 430 282 179 99 12 2 0 0 0 0 0 0 0 0 0 0
1698 1703 1673 1609 1552 1428 1177 1042 942 919 915 941 1003 963 705 772 853 838 913 859 768 794 846 510 411 407 329 262 188 64 0 0 0 0 0 0 0 0 0 0 0 0 0 0 0 0 0 0 0 0 304 390 426 640 744 752 769 638 555 540 511 531 519 404 336 298 582 562 519 464 304 219 144 8 28 6 0 0 0 0 0 0 0 0 0
1703 1661 1686 1712 1688 1611 1411 1204 1133 1063 1062 1044 1066 976 844 974 1017 1013 1088 997 976 956 820 450 500 449 402 371 337 241 12 0 0 0 0 0 0 0 0 0 0 0 0 0 0 0 0 0 0 130 398 456 460 464 531 672 698 656 678 714 788 712 567 397 321 322 457 522 573 544 393 256 193 0 0 10 6 0 0 0 0 0 0 0 0
1757 1679 1747 1797 1787 1742 1556 1394 1294 1217 1202 1177 1104 1040 957 1128 1150 1089 1136 1114 988 857 642 216 436 427 385 332 239 0 0 0 0 0 0 0 0 0 0 0 0 0 0 0 0 0 0 0 0 0 0 374 529 558 588 582 656 721 801 764 745 685 575 440 365 341 379 457 553 571 602 370 145 79 0 0 0 0 0 0 0 0 0 0 0
1742 1747 1758 1801 1842 1794 1697 1599 1496 1387 1315 1247 1093 1036 1004 1215 1252 1170 1168 1061 852 696 525 159 0 0 188 0 0 0 0 0 0 0 0 0 0 0 0 0 0 0 0 0 0 0 0 0 0 0 0 397 552 616 623 587 608 741 831 783 684 506 442 389 393 340 314 431 512 501 573 510 417 265 0 0 0 0 0 0 0 0 0 0 0
1681 1717 1742 1805 1869 1853 1807 1718 1603 1514 1411 1294 1122 966 1002 1253 1350 1270 1126 1083 925 610 505 378 39 0 0 0 0 0 0 0 0 0 0 0 0 0 0 0 0 0 0 0 0 0 0 0 0 0 0 386 612 657 677 689 674 670 704 720 564 141 0 0 0 0 51 98 82 0 0 0 0 0 0 0 0 0 0 0 0 0 0 0 0
1623 1553 1633 1739 1797 1832 1789 1681 1616 1578 1494 1360 1130 940 932 1194 1348 1266 1215 1217 932 690 500 419 352 0 0 0 0 0 0 0 0 0 0 0 0 0 0 0 0 0 0 0 0 0 0 0 0 0 0 124 408 514 585 559 535 549 524 466 57 0 0 0 0 0 0 0 0 0 0 0 0 0 0 0 0 0 0 0 0 0 0 0 0
1754 1542 1615 1716 1737 1729 1701 1610 1568 1564 1497 1338 1147 1115 1040 983 1216 1266 1290 1168 897 851 618 405 370 3 0 0 0 0 0 0 0 0 0 0 0 0 0 0 0 0 0 0 0 0 0 0 0 0 0 0 0 0 0 0 0 324 352 108 0 0 0 0 0 0 0 0 0 0 0 0 0 0 0 0 0 0 0 0 0 0 0 0 0
1619 1616 1704 1701 1680 1671 1633 1574 1562 1552 1512 1361 1262 1250 1168 998 1037 1260 1372 1156 932 967 774 411 374 99 12 0 0 0 0 0 0 0 0 0 0 0 0 0 0 0 0 0 0 0 0 0 0 0 0 0 0 0 0 0 0 0 93 0 0 0 0 0 0 0 0 0 0 0 0 0 0 0 0 0 0 0 0 0 0 0 0 0 0
1443 1414 1598 1706 1644 1617 1639 1631 1564 1533 1521 1441 1340 1194 1216 1140 1035 1224 1339 1203 948 1068 841 651 490 350 15 0 0 0 0 0 0 0 0 0 0 0 0 0 0 0 0 0 0 0 0 0 0 0 0 0 0 0 0 0 0 0 0 0 0 0 0 0 0 0 0 0 0 0 0 0 0 0 0 0 0 0 0 0 0 0 0 0 0
1439 1420 1453 1572 1581 1548 1604 1597 1556 1487 1444 1397 1364 1259 1277 1279 1124 1152 1189 1173 934 1106 889 763 692 586 56 0 0 0 0 0 0 0 0 0 0 0 0 0 0 0 0 0 0 0 0 0 0 0 0 0 0 0 0 0 0 0 0 0 0 0 0 0 0 0 0 0 0 0 0 0 0 0 0 0 0 0 0 0 0 0 0 0 0
1525 1358 1280 1205 1411 1426 1670 1567 1513 1514 1390 1259 1251 1333 1238 1330 1050 1125 837 1012 1044 1167 1037 814 732 675 525 1 0 0 0 0 0 0 0 0 0 0 0 0 0 0 0 0 0 0 0 0 0 0 0 0 0 0 0 0 0 0 0 0 0 0 0 0 0 0 0 0 0 0 0 0 0 0 0 0 0 0 0 0 0 0 0 0 0
1219 1022 1157 1124 908 1014 910 753 1056 970 969 925 1069 1354 1305 1336 1202 828 865 877 905 1340 1232 995 835 841 771 435 29 33 0 0 0 0 0 0 0 0 0 0 0 0 0 0 0 0 0 0 0 0 0 0 0 0 0 0 0 0 0 0 0 0 0 0 0 0 0 0 0 0 0 0 0 0 0 0 0 0 0 0 0 0 0 0 0
1307 886 569 470 794 1001 973 860 808 784 541 743 797 1007 1229 1327 1272 1104 764 1020 952 1168 1090 987 881 882 783 536 341 187 0 0 12 222 230 154 13 0 0 0 0 0 0 0 0 0 0 0 0 0 0 0 0 0 0 0 0 0 0 0 0 0 0 0 0 0 0 0 0 0 0 0 0 0 0 0 0 0 0 0 0 0 0 0 0
989 800 633 674 719 728 734 809 815 836 727 699 824 819 510 709 823 912 907 673 517 776 960 864 829 712 765 688 509 269 124 323 359 358 302 258 172 0 0 0 0 0 0 0 0 0 0 0 0 0 0 0 0 0 0 0 0 0 0 0 0 0 0 0 0 0 0 0 0 0 0 0 0 0 0 0 0 0 0 0 0 0 0 0 0
782 721 433 562 515 528 531 680 496 494 515 515 438 401 407 696 670 222 500 548 667 843 606 124 125 363 447 566 592 396 463 475 347 260 282 282 174 0 0 0 0 0 0 0 0 0 0 0 0 0 0 0 0 0 0 0 0 0 0 0 0 0 0 0 0 0 0 0 0 0 0 0 0 0 0 0 0 0 0 0 0 0 0 0 0
644 702 541 435 450 448 427 337 237 340 475 374 248 242 284 257 152 137 400 516 782 788 852 965 618 337 243 468 402 483 523 432 399 270 305 262 106 0 0 0 0 0 0 0 0 0 0 0 0 0 0 0 0 0 0 0 0 0 0 0 0 0 0 0 0 0 0 0 0 0 0 0 0 0 0 0 0 0 0 0 0 0 0 0 0
386 565 547 503 502 471 356 279 180 0 215 326 293 355 331 462 471 555 720 646 648 784 557 864 838 485 516 479 429 35 360 411 348 388 337 212 0 0 0 0 0 0 0 0 0 0 0 0 0 0 0 0 0 0 0 0 0 0 0 0 0 0 0 0 0 0 0 0 0 0 0 0 0 0 0 0 0 0 0 0 0 0 0 0 0
316 320 434 474 455 432 355 257 0 112 300 327 321 322 0 58 69 473 323 602 91 570 206 450 388 498 652 466 284 180 383 390 332 311 244 244 0 0 0 0 0 0 0 0 0 0 0 0 0 0 0 0 0 0 0 0 0 0 0 0 0 0 0 0 0 0 0 0 0 0 0 0 0 0 0 0 0 0 0 0 0 0 0 0 0
262 261 260 147 266 295 285 305 211 136 218 322 359 358 277 233 218 295 340 419 379 423 152 266 451 472 487 398 292 382 448 384 412 366 352 346 279 92 0 0 0 0 0 0 0 0 0 0 0 0 0 0 0 0 0 0 0 0 0 0 0 0 0 0 0 0 0 0 0 0 0 1 8 2 0 0 0 0 0 0 0 0 0 0 0
17 13 1 0 0 0 0 0 192 182 127 30 254 265 223 201 0 277 370 387 59 301 370 467 619 704 733 658 524 520 471 280 374 456 396 441 357 305 327 360 396 0 0 0 0 0 0 0 0 0 0 0 0 0 0 0 0 0 0 0 0 0 0 0 0 0 0 0 0 0 0 0 0 0 0 0 0 0 0 0 0 0 0 0 0
82 20 0 0 0 0 0 0 77 148 111 4 33 162 176 184 145 242 320 372 280 214 62 0 9 387 474 515 506 475 394 330 247 54 431 502 452 434 405 428 514 559 491 173 0 0 148 0 0 0 0 0 0 0 0 0 0 0 0 0 0 0 0 0 0 0 0 0 0 0 0 0 0 0 0 0 0 0 0 0 0 0 0 0 0
214 133 121 0 0 0 0 0 0 139 71 0 34 102 111 81 92 173 300 352 370 330 226 0 48 268 348 379 413 387 414 413 348 411 467 506 495 474 441 443 557 618 558 599 619 544 96 229 137 0 0 0 0 0 0 0 0 0 0 0 0 0 0 0 0 0 0 0 0 0 0 0 0 0 0 0 0 0 0 0 0 0 0 0 0
128 0 23 0 0 0 2 5 0 0 3 4 22 10 0 0 0 0 135 192 250 224 0 0 0 0 129 187 238 205 313 349 324 331 369 401 436 428 417 449 432 535 560 559 563 569 586 519 285 409 344 235 0 0 0 0 0 0 0 0 2 3 1 2 2 251 332 276 0 238 0 0 0 0 0 0 0 0 0 0 0 0 0 0 0
0 0 8 32 4 0 38 5 24 32 24 28 45 21 9 0 0 0 0 0 0 0 0 104 0 0 30 131 107 96 134 174 182 253 322 352 189 132 144 319 466 510 511 462 484 497 490 437 463 408 440 459 519 484 431 372 68 0 0 0 0 0 0 0 0 278 392 413 385 404 418 403 250 117 292 218 257 171 164 164 109 0 0 0 0
0 0 3 0 0 8 15 27 21 43 87 91 82 26 11 6 0 0 15 2 2 5 8 0 0 30 82 105 107 67 2 0 0 0 0 0 0 0 87 188 250 326 371 437 434 312 205 339 476 429 536 585 545 524 552 564 543 504 388 196 41 0 0 0 0 340 462 483 480 434 412 423 422 389 239 230 0 13 0 0 0 0 0 0 0
0 3 2 2 2 1 1 0 0 0 0 0 3 17 66 34 6 29 59 64 7 4 0 0 1 6 12 19 22 21 7 5 0 0 0 0 0 0 0 0 0 0 0 0 0 0 0 0 0 104 477 537 602 624 631 622 588 594 577 542 425 195 269 565 624 616 612 605 596 552 484 372 372 469 203 0 12 8 2 157 21 75 77 1 0
6 9 0 6 4 3 2 1 2 1 0 0 0 1 4 18 10 8 14 22 6 7 20 11 12 1 2 2 12 28 37 17 2 0 0 0 0 0 0 0 0 0 0 0 0 0 0 0 0 0 0 68 536 598 615 634 633 637 611 647 613 322 295 445 697 806 837 829 811 758 609 469 0 252 0 0 0 1 1 7 7 8 2 0 0
0 0 0 6 6 6 2 3 3 4 1 0 0 0 0 0 3 0 0 0 0 0 0 0 0 0 3 9 13 34 20 1 3 0 0 0 0 0 0 0 0 0 0 0 0 0 0 0 0 0 0 0 0 342 643 667 660 641 609 579 585 589 601 597 545 573 683 753 783 791 739 639 550 438 44 0 0 0 0 10 14 8 0 0 0
0 0 0 0 4 11 13 12 7 0 0 0 0 0 0 0 0 0 0 0 0 0 0 0 0 0 0 0 3 8 10 11 6 0 0 0 0 0 0 0 0 0 0 0 0 0 0 0 0 0 0 0 0 0 92 558 640 613 593 601 582 536 528 544 566 569 567 517 473 494 485 444 384 322 136 2 0 0 0 0 0 0 0 0 0
0 0 0 1 3 7 8 2 0 0 0 0 0 0 0 0 0 0 0 0 0 0 0 0 0 0 0 0 0 0 0 0 0 0 0 0 0 0 0 0 0 0 0 0 0 0 0 0 0 0 0 0 0 0 0 0 447 528 555 535 506 492 502 494 467 448 437 437 419 413 402 392 371 158 0 0 0 91 40 0 9 0 0 0 0
0 0 0 2 1 2 2 5 7 3 2 0 2 5 1 0 0 0 0 0 0 0 0 0 0 0 0 0 0 0 0 0 0 0 0 0 0 0 0 0 0 0 0 0 0 0 0 0 0 0 0 0 0 0 0 0 0 139 454 450 444 453 471 473 436 424 426 412 414 403 380 372 344 292 17 196 230 190 131 0 5 18 60 2 10
0 1 2 1 2 0 2 3 0 1 0 0 0 0 0 0 0 0 0 0 0 0 0 0 0 0 0 0 0 0 0 0 0 0 0 0 0 0 0 0 0 0 0 0 0 0 0 0 0 0 0 0 0 0 0 0 0 0 0 125 389 386 380 364 328 324 386 432 411 393 337 260 66 0 77 170 119 88 59 66 78 48 14 0 0
3 2 2 2 4 4 3 1 0 0 0 0 0 0 0 0 0 0 0 0 0 0 0 0 0 0 0 0 0 0 0 0 0 0 0 0 0 0 0 0 0 0 0 0 0 0 0 0 0 0 0 0 0 0 0 0 0 0 0 0 0 279 346 344 320 276 326 360 440 461 412 354 331 292 239 168 0 8 0 16 62 21 21 10 0
1 3 3 2 1 1 2 3 2 0 0 0 0 0 0 0 0 0 0 0 0 0 0 0 0 0 0 0 0 0 0 0 0 0 0 0 0 0 0 0 0 0 0 0 0 0 0 0 0 0 0 0 0 0 0 0 0 0 0 0 0 0 0 320 331 359 373 452 566 602 520 432 358 244 134 0 0 0 0 0 27 13 0 2 0
0 0 0 0 0 0 0 0 0 0 0 0 0 0 0 0 0 0 0 0 0 0 0 0 0 0 0 0 0 0 0 0 0 0 0 0 0 0 0 0 0 0 0 0 0 0 0 0 0 0 0 0 0 0 0 0 0 0 0 0 0 0 0 196 329 388 447 552 626 610 507 343 176 95 0 0 0 0 0 0 2 0 1 3 0
0 0 0 0 0 0 0 0 0 0 0 0 0 0 0 0 0 0 0 0 0 0 0 0 0 0 0 0 0 0 0 0 0 0 0 0 0 0 0 0 0 0 0 0 0 0 0 0 0 0 0 0 0 0 0 0 0 0 0 0 0 0 99 288 281 288 433 588 578 495 374 234 128 18 0 0 0 0 0 0 0 0 40 0 0
0 0 0 0 0 0 0 0 0 0 0 0 0 0 0 0 0 0 0 0 0 0 0 0 0 0 0 0 0 0 0 0 0 0 0 0 0 0 0 0 0 0 0 0 0 0 0 0 0 0 0 0 0 0 0 0 0 0 0 0 0 0 0 161 199 211 430 525 517 378 251 153 83 50 61 64 27 4 4 0 1 0 0 0 0
0 0 0 0 0 0 0 0 0 0 0 0 0 0 0 0 0 0 0 0 0 0 0 0 0 0 0 0 0 0 0 0 0 0 0 0 0 0 0 0 0 0 0 0 0 0 0 0 0 0 0 0 0 0 0 0 0 0 0 0 0 0 2 87 166 186 306 317 360 339 280 152 87 94 114 115 32 36 6 0 0 0 0 0 0
1 0 0 0 0 0 0 0 0 0 0 0 0 0 0 0 0 0 0 0 0 0 0 0 0 0 0 0 0 0 0 0 0 0 0 0 0 0 0 0 0 0 0 0 0 0 0 0 0 0 0 0 0 0 0 0 0 0 0 0 0 0 0 0 73 146 160 183 285 225 190 147 129 109 126 107 68 46 13 0 0 0 0 0 0
0 0 0 0 0 0 0 0 0 0 0 0 0 0 0 0 0 0 0 0 0 0 0 0 0 0 0 0 0 0 0 0 0 0 0 0 0 0 0 0 0 0 0 0 0 0 0 0 0 0 0 0 0 0 0 0 0 0 0 0 0 0 0 0 0 0 0 5 3 53 64 122 134 146 152 150 66 42 26 7 0 0 0 0 0
Wind_Speed
26 30 28 26 26 22 19 19 20 21 23 23 22 20 20 20 20 20 18 19 19 17 15 14 12 10 8 8 8 8 8 9 10 10 9 8 7 7 6 6 7 9 10 12 13 13 12 12 12 12 12 10 10 9 8 9 10 10 nan nan nan 12 11 11 11 12 14 11 10 10 9 6 8 nan 6 2 2 4 nan nan nan nan nan 8 8
33 35 33 28 25 24 21 20 21 25 22 22 21 21 20 19 20 19 17 16 16 14 11 9 7 7 8 6 6 8 10 11 10 9 9 8 9 10 9 8 9 10 11 12 14 14 14 14 13 13 12 10 10 10 9 9 11 11 10 13 11 10 10 9 7 11 11 8 10 10 9 9 nan nan 6 5 6 6 nan nan nan nan nan nan 11
36 38 34 28 29 26 22 21 21 23 24 22 19 19 19 18 19 20 17 16 13 13 12 9 6 6 7 6 8 8 8 8 9 9 9 11 12 13 14 14 13 13 13 14 14 14 16 16 14 14 13 12 12 11 11 11 11 11 10 12 12 11 11 10 9 10 8 8 10 13 9 11 10 nan nan nan 7 8 nan nan nan nan nan nan nan
38 38 34 30 30 25 22 22 22 22 22 20 17 17 17 17 18 20 19 16 14 12 12 8 7 5 6 9 9 9 8 9 11 12 13 15 15 16 16 16 15 14 14 15 15 13 14 16 15 15 15 13 12 11 10 11 12 12 13 12 12 12 11 10 11 11 10 nan 11 10 9 12 12 9 nan nan nan nan nan nan nan nan nan nan nan
37 37 32 30 28 24 23 22 22 22 20 20 19 18 16 18 18 18 19 17 13 11 9 7 7 7 8 10 11 14 13 11 11 12 13 14 15 15 15 15 15 15 14 15 15 13 13 15 15 14 15 14 12 12 12 12 12 12 13 12 11 13 11 11 11 13 13 10 11 13 nan 12 8 nan nan nan nan nan nan nan nan nan nan nan nan
38 36 31 29 29 24 22 23 22 20 19 17 17 17 17 17 16 15 14 13 10 7 7 6 7 10 10 11 11 11 10 11 13 13 13 14 13 13 15 15 15 14 14 15 14 13 12 13 13 13 13 12 12 12 15 16 13 13 12 13 13 12 13 13 12 13 12 13 12 11 nan 11 nan nan nan nan nan nan nan nan nan nan nan nan nan
33 32 30 29 29 27 25 24 22 20 16 16 16 16 16 17 16 13 11 8 7 7 nan 7 10 11 12 10 11 13 15 13 14 15 16 14 16 16 15 14 14 14 13 13 13 12 11 11 12 12 11 11 11 13 14 14 13 13 14 14 13 14 13 12 11 11 13 13 14 14 13 13 nan nan nan nan nan nan nan nan nan nan nan nan nan
38 36 33 30 31 32 29 24 21 18 16 15 16 15 16 16 17 16 13 11 8 nan 9 12 13 13 14 13 15 17 18 18 17 15 15 16 17 15 15 14 12 12 12 12 12 12 11 11 11 12 12 10 9 10 12 12 13 14 14 14 14 13 13 13 11 12 13 11 14 14 16 nan nan nan nan nan nan nan nan nan nan nan nan nan nan
41 38 37 35 34 30 26 23 19 17 15 16 15 15 15 15 16 17 15 12 9 nan 11 12 13 14 16 16 18 nan 19 18 16 16 17 16 16 14 15 14 13 10 10 11 10 10 10 9 10 11 11 10 10 11 11 12 13 15 16 15 13 13 14 14 15 12 14 14 16 15 16 nan nan nan nan nan nan nan nan nan nan nan nan nan nan
36 36 38 36 31 26 24 23 20 15 14 15 15 15 15 14 15 14 12 9 nan nan 11 12 12 14 nan nan nan 18 19 18 17 nan nan 16 16 15 nan nan nan nan 10 10 12 10 10 9 8 8 9 11 12 12 13 14 15 15 14 14 15 15 14 15 14 14 14 15 15 15 15 15 nan nan nan nan nan nan nan nan nan nan nan nan nan
34 35 35 31 23 22 23 22 18 14 13 14 15 14 14 14 14 13 12 12 11 13 13 11 9 10 13 nan nan nan nan nan nan nan nan nan nan nan nan nan nan nan nan nan nan nan nan nan nan nan nan 10 12 13 14 15 16 17 16 17 16 15 13 14 15 14 15 15 14 15 14 15 nan nan nan nan nan nan nan nan nan nan nan nan nan
34 35 32 25 20 18 18 18 16 14 13 14 14 13 14 15 16 16 15 15 14 14 13 11 9 10 12 15 17 nan nan nan nan nan nan nan nan nan nan nan nan nan nan nan nan nan nan nan nan nan 10 10 10 11 13 15 15 17 18 18 17 15 14 14 14 15 14 14 13 13 13 15 15 nan nan nan nan nan nan nan nan nan nan nan nan
35 33 26 20 18 17 15 15 15 14 14 15 13 12 14 16 17 18 17 17 16 14 13 11 11 10 11 13 13 13 nan nan nan nan nan nan nan nan nan nan nan nan nan nan nan nan nan nan nan 14 12 11 11 12 12 12 14 15 17 18 18 18 16 16 14 14 15 14 12 13 14 15 13 nan nan nan nan nan nan nan nan nan nan nan nan
33 28 22 19 19 18 16 15 14 14 15 15 13 12 14 16 17 20 19 17 16 15 13 12 10 9 8 9 8 nan nan nan nan nan nan nan nan nan nan nan nan nan nan nan nan nan nan nan nan nan nan 15 15 15 15 13 14 16 16 16 16 16 17 16 15 15 14 14 14 14 12 11 11 nan nan nan nan nan nan nan nan nan nan nan nan
30 24 20 21 21 19 16 15 14 13 15 16 17 18 19 20 22 24 23 20 18 16 15 14 nan nan 11 nan nan nan nan nan nan nan nan nan nan nan nan nan nan nan nan nan nan nan nan nan nan nan nan 19 19 19 18 18 17 17 16 15 15 16 17 17 16 17 16 15 14 13 11 9 9 11 nan nan nan nan nan nan nan nan nan nan nan
23 21 21 21 22 19 16 15 14 14 16 21 25 26 26 25 25 24 23 20 17 16 16 16 nan nan nan nan nan nan nan nan nan nan nan nan nan nan nan nan nan nan nan nan nan nan nan nan nan nan nan 20 20 20 20 21 20 21 18 17 17 16 nan nan nan nan nan nan nan nan nan nan nan nan nan nan nan nan nan nan nan nan nan nan nan
19 20 20 21 19 17 14 13 13 15 17 21 24 25 27 27 26 23 21 20 19 18 18 17 15 nan nan nan nan nan nan nan nan nan nan nan nan nan nan nan nan nan nan nan nan nan nan nan nan nan nan 17 18 19 21 21 22 22 21 19 nan nan nan nan nan nan nan nan nan nan nan nan nan nan nan nan nan nan nan nan nan nan nan nan nan
22 21 18 18 16 14 14 13 12 16 22 21 22 24 28 28 25 21 20 22 22 22 20 17 16 nan nan nan nan nan nan nan nan nan nan nan nan nan nan nan nan nan nan nan nan nan nan nan nan nan nan nan nan nan nan nan nan 22 21 20 nan nan nan nan nan nan nan nan nan nan nan nan nan nan nan nan nan nan nan nan nan nan nan nan nan
24 20 17 16 15 14 14 13 17 23 24 23 27 27 24 22 21 21 22 21 20 21 21 17 16 nan nan nan nan nan nan nan nan nan nan nan nan nan nan nan nan nan nan nan nan nan nan nan nan nan nan nan nan nan nan nan nan nan nan nan nan nan nan nan nan nan nan nan nan nan nan nan nan nan nan nan nan nan nan nan nan nan nan nan nan
26 23 19 16 15 15 15 17 22 27 25 24 27 24 18 12 13 17 21 20 18 18 18 17 15 16 nan nan nan nan nan nan nan nan nan nan nan nan nan nan nan nan nan nan nan nan nan nan nan nan nan nan nan nan nan nan nan nan nan nan nan nan nan nan nan nan nan nan nan nan nan nan nan nan nan nan nan nan nan nan nan nan nan nan nan
27 25 24 22 22 21 22 23 26 27 26 26 26 24 20 16 13 12 17 19 17 13 14 15 17 16 nan nan nan nan nan nan nan nan nan nan nan nan nan nan nan nan nan nan nan nan nan nan nan nan nan nan nan nan nan nan nan nan nan nan nan nan nan nan nan nan nan nan nan nan nan nan nan nan nan nan nan nan nan nan nan nan nan nan nan
29 29 29 32 34 33 31 29 26 29 28 29 27 25 23 19 15 11 13 15 15 14 14 16 19 19 18 nan nan nan nan nan nan nan nan nan nan nan nan nan nan nan nan nan nan nan nan nan nan nan nan nan nan nan nan nan nan nan nan nan nan nan nan nan nan nan nan nan nan nan nan nan nan nan nan nan nan nan nan nan nan nan nan nan nan
32 35 35 36 36 31 27 23 25 33 32 27 23 22 21 20 17 14 13 13 13 17 18 20 22 22 21 21 nan nan nan nan nan nan nan nan nan nan nan nan nan nan nan nan nan nan nan nan nan nan nan nan nan nan nan nan nan nan nan nan nan nan nan nan nan nan nan nan nan nan nan nan nan nan nan nan nan nan nan nan nan nan nan nan nan
34 37 34 31 31 32 31 31 32 32 28 22 22 23 26 25 21 18 16 16 14 17 21 23 25 23 22 23 23 21 nan nan nan 21 21 19 nan nan nan nan nan nan nan nan nan nan nan nan nan nan nan nan nan nan nan nan nan nan nan nan nan nan nan nan nan nan nan nan nan nan nan nan nan nan nan nan nan nan nan nan nan nan nan nan nan
36 39 37 35 37 36 34 34 36 33 28 24 28 29 30 28 26 21 20 18 17 23 28 30 30 25 21 24 23 21 22 23 24 23 21 19 18 nan nan nan nan nan nan nan nan nan nan nan nan nan nan nan nan nan nan nan nan nan nan nan nan nan nan nan nan nan nan nan nan nan nan nan nan nan nan nan nan nan nan nan nan nan nan nan nan
36 37 36 35 34 35 36 37 38 34 27 26 32 35 34 31 28 25 20 19 24 25 25 27 29 28 27 22 23 23 25 25 25 22 20 19 19 nan nan nan nan nan nan nan nan nan nan nan nan nan nan nan nan nan nan nan nan nan nan nan nan nan nan nan nan nan nan nan nan nan nan nan nan nan nan nan nan nan nan nan nan nan nan nan nan
36 34 32 32 33 32 33 34 35 33 29 26 28 34 38 33 27 22 21 21 23 23 23 26 25 26 27 23 24 25 26 25 24 22 22 21 20 nan nan nan nan nan nan nan nan nan nan nan nan nan nan nan nan nan nan nan nan nan nan nan nan nan nan nan nan nan nan nan nan nan nan nan nan nan nan nan nan nan nan nan nan nan nan nan nan
33 33 33 34 34 34 34 32 30 nan 24 23 24 24 25 22 20 21 22 23 26 25 26 24 23 24 29 31 31 nan 25 25 26 24 22 21 nan nan nan nan nan nan nan nan nan nan nan nan nan nan nan nan nan nan nan nan nan nan nan nan nan nan nan nan nan nan nan nan nan nan nan nan nan nan nan nan nan nan nan nan nan nan nan nan nan
34 33 33 34 36 36 36 35 nan 27 23 25 25 21 nan nan nan 18 17 18 nan 25 21 18 19 23 26 29 30 28 27 27 26 23 22 21 nan nan nan nan nan nan nan nan nan nan nan nan nan nan nan nan nan nan nan nan nan nan nan nan nan nan nan nan nan nan nan nan nan nan nan nan nan nan nan nan nan nan nan nan nan nan nan nan nan
33 31 31 33 34 35 36 36 34 31 29 31 30 27 25 23 21 22 22 21 23 21 19 20 23 22 22 24 26 24 25 27 26 24 22 22 22 nan nan nan nan nan nan nan nan nan nan nan nan nan nan nan nan nan nan nan nan nan nan nan nan nan nan nan nan nan nan nan nan nan nan nan nan nan nan nan nan nan nan nan nan nan nan nan nan
nan nan nan nan nan nan nan nan 38 36 34 nan 33 32 33 32 nan 27 28 26 nan 21 20 23 23 21 19 21 24 22 20 23 22 22 23 24 25 25 26 26 26 nan nan nan nan nan nan nan nan nan nan nan nan nan nan nan nan nan nan nan nan nan nan nan nan nan nan nan nan nan nan nan nan nan nan nan nan nan nan nan nan nan nan nan nan
nan nan nan nan nan nan nan nan nan 35 35 nan nan 35 35 32 30 32 30 30 30 29 nan nan nan 22 20 20 21 19 18 18 20 nan 21 24 27 28 28 26 27 28 28 29 nan nan 32 nan nan nan nan nan nan nan nan nan nan nan nan nan nan nan nan nan nan nan nan nan nan nan nan nan nan nan nan nan nan nan nan nan nan nan nan nan nan
30 32 34 nan nan nan nan nan nan 35 nan nan nan 36 34 nan nan 29 29 30 30 29 28 nan nan 27 26 25 24 26 28 27 24 25 27 31 32 32 31 30 29 28 30 32 32 33 nan 31 30 nan nan nan nan nan nan nan nan nan nan nan nan nan nan nan nan nan nan nan nan nan nan nan nan nan nan nan nan nan nan nan nan nan nan nan nan
31 nan nan nan nan nan nan nan nan nan nan nan nan nan nan nan nan nan 32 31 32 32 nan nan nan nan 29 30 33 35 36 35 33 33 33 35 36 36 36 35 33 32 32 32 32 32 31 30 30 29 27 27 nan nan nan nan nan nan nan nan nan nan nan nan nan 28 29 29 nan 29 nan nan nan nan nan nan nan nan nan nan nan nan nan nan nan
nan nan nan nan nan nan nan nan nan nan nan nan nan nan nan nan nan nan nan nan nan nan nan 33 nan nan nan 36 37 nan 40 40 39 37 37 38 37 38 39 37 36 35 33 33 33 32 30 30 30 31 31 30 30 29 29 27 nan nan nan nan nan nan nan nan nan 30 32 33 33 34 35 34 35 35 34 34 33 34 37 38 38 nan nan nan nan
nan nan nan nan nan nan nan nan nan nan nan nan nan nan nan nan nan nan nan nan nan nan nan nan nan nan nan 39 39 nan nan nan nan nan nan nan nan nan nan 35 36 37 36 36 35 34 32 32 32 32 32 32 32 32 31 31 33 31 32 35 nan nan nan nan nan 31 32 34 36 38 39 40 40 39 36 37 nan nan nan nan nan nan nan nan nan
nan nan nan nan nan nan nan nan nan nan nan nan nan nan nan nan nan nan nan nan nan nan nan nan nan nan nan nan nan nan nan nan nan nan nan nan nan nan nan nan nan nan nan nan nan nan nan nan nan 37 37 36 35 33 33 33 36 40 43 41 39 38 38 35 32 31 32 34 36 37 37 40 44 42 44 nan nan nan nan 43 nan nan nan nan nan
nan nan nan nan nan nan nan nan nan nan nan nan nan nan nan nan nan nan nan nan nan nan nan nan nan nan nan nan nan nan nan nan nan nan nan nan nan nan nan nan nan nan nan nan nan nan nan nan nan nan nan nan 39 37 35 36 37 42 45 44 41 40 38 39 37 35 35 36 38 39 39 38 nan 44 nan nan nan nan nan nan nan nan nan nan nan
nan nan nan nan nan nan nan nan nan nan nan nan nan nan nan nan nan nan nan nan nan nan nan nan nan nan nan nan nan nan nan nan nan nan nan nan nan nan nan nan nan nan nan nan nan nan nan nan nan nan nan nan nan 40 39 39 39 40 45 45 44 42 41 41 41 40 41 43 43 43 41 41 43 45 nan nan nan nan nan nan nan nan nan nan nan
nan nan nan nan nan nan nan nan nan nan nan nan nan nan nan nan nan nan nan nan nan nan nan nan nan nan nan nan nan nan nan nan nan nan nan nan nan nan nan nan nan nan nan nan nan nan nan nan nan nan nan nan nan nan nan 39 39 39 42 45 45 44 42 42 44 45 45 47 48 48 48 48 48 49 49 nan nan nan nan nan nan nan nan nan nan
nan nan nan nan nan nan nan nan nan nan nan nan nan nan nan nan nan nan nan nan nan nan nan nan nan nan nan nan nan nan nan nan nan nan nan nan nan nan nan nan nan nan nan nan nan nan nan nan nan nan nan nan nan nan nan nan 38 38 40 47 46 44 44 46 47 48 49 51 53 53 52 53 52 49 nan nan nan nan nan nan nan nan nan nan nan
nan nan nan nan nan nan nan nan nan nan nan nan nan nan nan nan nan nan nan nan nan nan nan nan nan nan nan nan nan nan nan nan nan nan nan nan nan nan nan nan nan nan nan nan nan nan nan nan nan nan nan nan nan nan nan nan nan 38 40 47 49 48 50 52 52 53 54 56 57 57 56 56 55 53 nan 49 50 51 51 nan nan nan nan nan nan
nan nan nan nan nan nan nan nan nan nan nan nan nan nan nan nan nan nan nan nan nan nan nan nan nan nan nan nan nan nan nan nan nan nan nan nan nan nan nan nan nan nan nan nan nan nan nan nan nan nan nan nan nan nan nan nan nan nan nan 47 49 51 52 58 59 57 58 59 62 62 59 59 nan nan nan 54 53 nan nan nan nan nan nan nan nan
nan nan nan nan nan nan nan nan nan nan nan nan nan nan nan nan nan nan nan nan nan nan nan nan nan nan nan nan nan nan nan nan nan nan nan nan nan nan nan nan nan nan nan nan nan nan nan nan nan nan nan nan nan nan nan nan nan nan nan nan nan 50 53 60 61 60 62 65 66 64 64 63 61 60 59 58 nan nan nan nan nan nan nan nan nan
nan nan nan nan nan nan nan nan nan nan nan nan nan nan nan nan nan nan nan nan nan nan nan nan nan nan nan nan nan nan nan nan nan nan nan nan nan nan nan nan nan nan nan nan nan nan nan nan nan nan nan nan nan nan nan nan nan nan nan nan nan nan nan 57 61 61 65 65 65 67 69 68 66 66 67 nan nan nan nan nan nan nan nan nan nan
nan nan nan nan nan nan nan nan nan nan nan nan nan nan nan nan nan nan nan nan nan nan nan nan nan nan nan nan nan nan nan nan nan nan nan nan nan nan nan nan nan nan nan nan nan nan nan nan nan nan nan nan nan nan nan nan nan nan nan nan nan nan nan 55 57 59 61 65 67 68 67 67 67 nan nan nan nan nan nan nan nan nan nan nan nan
nan nan nan nan nan nan nan nan nan nan nan nan nan nan nan nan nan nan nan nan nan nan nan nan nan nan nan nan nan nan nan nan nan nan nan nan nan nan nan nan nan nan nan nan nan nan nan nan nan nan nan nan nan nan nan nan nan nan nan nan nan nan nan 59 58 59 62 62 63 63 62 61 61 nan nan nan nan nan nan nan nan nan nan nan nan
nan nan nan nan nan nan nan nan nan nan nan nan nan nan nan nan nan nan nan nan nan nan nan nan nan nan nan nan nan nan nan nan nan nan nan nan nan nan nan nan nan nan nan nan nan nan nan nan nan nan nan nan nan nan nan nan nan nan nan nan nan nan nan 61 59 59 58 61 63 63 64 62 nan nan nan nan nan nan nan nan nan nan nan nan nan
nan nan nan nan nan nan nan nan nan nan nan nan nan nan nan nan nan nan nan nan nan nan nan nan nan nan nan nan nan nan nan nan nan nan nan nan nan nan nan nan nan nan nan nan nan nan nan nan nan nan nan nan nan nan nan nan nan nan nan nan nan nan nan nan 57 54 61 63 64 63 61 60 nan nan 54 53 nan nan nan nan nan nan nan nan nan
nan nan nan nan nan nan nan nan nan nan nan nan nan nan nan nan nan nan nan nan nan nan nan nan nan nan nan nan nan nan nan nan nan nan nan nan nan nan nan nan nan nan nan nan nan nan nan nan nan nan nan nan nan nan nan nan nan nan nan nan nan nan nan nan nan 61 48 51 56 56 52 51 51 52 52 50 nan nan nan nan nan nan nan nan nan
nan nan nan nan nan nan nan nan nan nan nan nan nan nan nan nan nan nan nan nan nan nan nan nan nan nan nan nan nan nan nan nan nan nan nan nan nan nan nan nan nan nan nan nan nan nan nan nan nan nan nan nan nan nan nan nan nan nan nan nan nan nan nan nan nan nan nan nan nan nan nan 46 47 50 51 50 nan nan nan nan nan nan nan nan nan
Wind_Direction
303 302 295 297 304 304 301 302 301 300 300 297 294 293 296 297 297 298 296 292 288 286 287 291 293 285 266 279 283 279 281 267 273 281 301 308 289 278 264 269 275 279 278 276 276 273 268 263 263 263 266 269 269 270 266 263 253 240 nan nan nan 251 236 242 246 254 261 250 245 249 246 245 256 nan 284 326 313 271 nan nan nan nan nan 267 265
301 297 292 294 302 305 302 303 305 305 305 299 298 298 295 296 299 300 295 295 296 295 297 303 304 302 289 294 268 271 270 277 276 281 286 277 263 255 258 269 268 268 272 272 270 274 271 268 268 268 267 269 261 257 256 253 253 250 245 238 226 251 250 256 257 247 233 264 270 248 236 227 nan nan 268 277 281 266 nan nan nan nan nan nan 273
294 295 294 295 303 307 303 304 304 304 306 304 299 296 296 297 297 299 297 297 294 287 286 296 281 275 277 271 271 252 250 265 268 258 253 254 255 260 262 266 271 273 271 265 262 261 266 267 267 268 270 270 264 259 257 253 251 252 240 248 243 229 243 242 241 233 251 237 238 246 233 237 221 nan nan nan 257 267 nan nan nan nan nan nan nan
294 298 299 298 304 307 303 302 301 300 303 300 298 300 300 297 298 297 295 287 284 280 274 272 291 291 278 278 271 259 254 245 241 242 247 254 260 264 267 272 275 277 274 272 264 261 268 269 263 265 269 265 268 265 258 254 246 240 236 238 251 249 236 230 224 230 247 nan 235 229 231 249 244 237 nan nan nan nan nan nan nan nan nan nan nan
291 296 300 303 308 309 306 302 300 304 304 302 301 304 302 301 297 295 285 276 269 267 272 269 262 258 264 255 243 229 221 235 254 255 263 267 267 268 275 273 277 279 276 274 272 270 260 260 261 260 262 261 258 258 258 258 251 247 251 251 254 261 242 231 221 229 234 226 252 241 nan 233 246 nan nan nan nan nan nan nan nan nan nan nan nan
294 301 305 310 312 304 299 301 303 304 303 301 301 302 298 294 287 281 272 266 265 263 269 278 291 281 280 280 256 236 249 272 287 295 284 285 289 276 275 277 277 274 272 271 270 270 263 260 260 265 263 262 264 261 254 255 254 254 258 259 248 237 255 242 233 225 228 223 229 233 nan 256 nan nan nan nan nan nan nan nan nan nan nan nan nan
277 287 295 306 313 307 303 305 306 305 302 293 290 288 288 288 283 279 276 271 266 264 nan 269 268 269 277 276 259 256 270 283 293 294 295 291 286 286 283 276 277 277 274 274 274 269 263 257 259 262 267 268 265 268 265 265 265 262 256 256 254 252 247 251 253 242 228 222 224 228 235 239 nan nan nan nan nan nan nan nan nan nan nan nan nan
290 295 297 302 311 312 308 306 303 306 295 290 288 284 291 289 279 269 266 273 269 nan 258 262 267 257 254 247 250 259 272 284 290 290 284 289 286 282 280 281 281 282 280 275 272 272 265 262 261 265 269 267 262 273 276 272 264 256 259 256 258 260 258 261 254 249 261 237 231 236 239 nan nan nan nan nan nan nan nan nan nan nan nan nan nan
295 297 301 305 310 307 299 302 302 296 296 299 300 295 285 281 272 264 268 268 259 nan 257 249 257 264 265 264 261 nan 270 274 272 275 283 285 281 276 274 275 274 273 276 274 265 265 263 263 261 262 264 269 264 252 254 269 274 272 270 269 270 257 253 253 258 260 256 259 252 245 246 nan nan nan nan nan nan nan nan nan nan nan nan nan nan
289 295 300 304 303 295 293 294 294 298 299 295 286 279 276 273 267 262 260 254 nan nan 240 244 258 268 nan nan nan 265 258 257 265 nan nan 275 275 272 nan nan nan nan 268 270 264 257 257 257 257 265 266 264 265 265 262 267 272 277 280 277 268 263 259 267 267 263 260 262 266 268 259 254 nan nan nan nan nan nan nan nan nan nan nan nan nan
293 299 298 298 290 283 283 290 290 285 287 290 285 277 272 265 254 249 239 228 226 228 232 247 256 259 265 nan nan nan nan nan nan nan nan nan nan nan nan nan nan nan nan nan nan nan nan nan nan nan nan 270 262 265 270 273 276 279 275 268 266 269 269 264 259 262 262 269 268 276 277 278 nan nan nan nan nan nan nan nan nan nan nan nan nan
293 297 297 296 286 275 276 280 282 282 277 280 271 264 264 260 255 248 232 225 222 226 235 242 250 252 255 263 266 nan nan nan nan nan nan nan nan nan nan nan nan nan nan nan nan nan nan nan nan nan 258 268 271 271 269 275 277 275 276 277 278 275 269 270 270 272 269 270 268 272 272 263 257 nan nan nan nan nan nan nan nan nan nan nan nan
290 292 293 291 286 281 275 270 268 272 280 274 266 259 260 261 260 255 238 226 225 230 239 240 242 247 257 261 259 259 nan nan nan nan nan nan nan nan nan nan nan nan nan nan nan nan nan nan nan 255 261 269 277 276 276 275 274 274 278 279 284 286 285 279 279 276 277 276 274 260 260 261 258 nan nan nan nan nan nan nan nan nan nan nan nan
279 281 280 279 275 273 272 269 266 270 276 269 256 260 263 259 257 254 239 227 226 234 245 247 241 244 258 270 267 nan nan nan nan nan nan nan nan nan nan nan nan nan nan nan nan nan nan nan nan nan nan 264 268 273 275 271 268 269 271 275 276 277 276 274 270 268 266 261 256 259 251 257 255 nan nan nan nan nan nan nan nan nan nan nan nan
274 273 270 270 274 281 279 272 268 272 273 260 253 255 253 244 241 242 236 227 230 241 249 255 nan nan 264 nan nan nan nan nan nan nan nan nan nan nan nan nan nan nan nan nan nan nan nan nan nan nan nan 264 265 266 266 263 262 259 257 260 257 259 263 264 261 265 264 263 260 262 258 255 257 274 nan nan nan nan nan nan nan nan nan nan nan
268 267 262 266 278 281 275 269 267 264 258 251 252 256 254 249 244 244 246 243 244 248 252 258 nan nan nan nan nan nan nan nan nan nan nan nan nan nan nan nan nan nan nan nan nan nan nan nan nan nan nan 263 263 265 264 262 261 261 257 254 251 246 nan nan nan nan nan nan nan nan nan nan nan nan nan nan nan nan nan nan nan nan nan nan nan
260 263 261 268 273 279 268 261 259 257 255 255 262 267 268 263 258 255 256 255 250 244 248 247 252 nan nan nan nan nan nan nan nan nan nan nan nan nan nan nan nan nan nan nan nan nan nan nan nan nan nan 259 257 258 261 261 261 263 264 259 nan nan nan nan nan nan nan nan nan nan nan nan nan nan nan nan nan nan nan nan nan nan nan nan nan
253 260 259 260 262 263 250 241 244 251 253 258 257 252 258 261 261 256 255 257 251 250 247 247 248 nan nan nan nan nan nan nan nan nan nan nan nan nan nan nan nan nan nan nan nan nan nan nan nan nan nan nan nan nan nan nan nan 260 260 258 nan nan nan nan nan nan nan nan nan nan nan nan nan nan nan nan nan nan nan nan nan nan nan nan nan
256 264 265 256 253 252 248 246 241 245 258 261 255 253 256 261 265 260 253 247 254 259 254 246 246 nan nan nan nan nan nan nan nan nan nan nan nan nan nan nan nan nan nan nan nan nan nan nan nan nan nan nan nan nan nan nan nan nan nan nan nan nan nan nan nan nan nan nan nan nan nan nan nan nan nan nan nan nan nan nan nan nan nan nan nan
260 267 267 258 251 251 251 249 248 253 258 257 262 266 261 261 278 268 255 249 243 253 263 260 250 249 nan nan nan nan nan nan nan nan nan nan nan nan nan nan nan nan nan nan nan nan nan nan nan nan nan nan nan nan nan nan nan nan nan nan nan nan nan nan nan nan nan nan nan nan nan nan nan nan nan nan nan nan nan nan nan nan nan nan nan
255 260 260 252 246 243 240 241 248 252 254 256 261 252 235 239 266 271 273 260 249 257 266 264 259 255 nan nan nan nan nan nan nan nan nan nan nan nan nan nan nan nan nan nan nan nan nan nan nan nan nan nan nan nan nan nan nan nan nan nan nan nan nan nan nan nan nan nan nan nan nan nan nan nan nan nan nan nan nan nan nan nan nan nan nan
243 246 245 240 235 232 229 227 235 253 252 249 253 249 238 246 261 264 260 248 246 255 253 254 250 255 255 nan nan nan nan nan nan nan nan nan nan nan nan nan nan nan nan nan nan nan nan nan nan nan nan nan nan nan nan nan nan nan nan nan nan nan nan nan nan nan nan nan nan nan nan nan nan nan nan nan nan nan nan nan nan nan nan nan nan
243 245 238 232 232 237 246 248 245 248 240 233 241 253 243 250 254 253 263 258 233 238 241 246 246 243 242 245 nan nan nan nan nan nan nan nan nan nan nan nan nan nan nan nan nan nan nan nan nan nan nan nan nan nan nan nan nan nan nan nan nan nan nan nan nan nan nan nan nan nan nan nan nan nan nan nan nan nan nan nan nan nan nan nan nan
241 243 244 240 239 243 246 248 256 263 261 247 230 234 239 248 263 269 273 268 251 246 241 241 240 237 236 242 243 243 nan nan nan 241 240 238 nan nan nan nan nan nan nan nan nan nan nan nan nan nan nan nan nan nan nan nan nan nan nan nan nan nan nan nan nan nan nan nan nan nan nan nan nan nan nan nan nan nan nan nan nan nan nan nan nan
242 246 245 243 244 246 246 248 248 250 244 237 245 240 236 245 260 265 263 264 260 249 237 228 226 226 238 250 242 245 244 242 239 234 235 236 240 nan nan nan nan nan nan nan nan nan nan nan nan nan nan nan nan nan nan nan nan nan nan nan nan nan nan nan nan nan nan nan nan nan nan nan nan nan nan nan nan nan nan nan nan nan nan nan nan
245 249 245 240 246 251 249 247 246 241 244 249 247 246 238 226 232 240 255 271 257 255 255 254 254 243 218 229 248 242 244 241 236 234 234 235 239 nan nan nan nan nan nan nan nan nan nan nan nan nan nan nan nan nan nan nan nan nan nan nan nan nan nan nan nan nan nan nan nan nan nan nan nan nan nan nan nan nan nan nan nan nan nan nan nan
242 241 240 239 239 242 243 246 252 249 246 248 246 244 238 228 219 220 227 232 234 243 251 257 254 251 246 229 229 234 242 241 235 234 232 233 238 nan nan nan nan nan nan nan nan nan nan nan nan nan nan nan nan nan nan nan nan nan nan nan nan nan nan nan nan nan nan nan nan nan nan nan nan nan nan nan nan nan nan nan nan nan nan nan nan
237 238 241 243 241 238 239 240 244 nan 245 237 233 245 253 245 235 233 230 227 226 231 233 229 238 236 235 235 235 nan 222 231 230 232 235 236 nan nan nan nan nan nan nan nan nan nan nan nan nan nan nan nan nan nan nan nan nan nan nan nan nan nan nan nan nan nan nan nan nan nan nan nan nan nan nan nan nan nan nan nan nan nan nan nan nan
239 240 240 240 239 238 240 240 nan 237 231 225 226 237 nan nan nan 248 255 258 nan 261 256 243 242 249 245 244 245 236 221 222 230 233 238 238 nan nan nan nan nan nan nan nan nan nan nan nan nan nan nan nan nan nan nan nan nan nan nan nan nan nan nan nan nan nan nan nan nan nan nan nan nan nan nan nan nan nan nan nan nan nan nan nan nan
243 240 237 234 232 235 238 240 241 241 235 233 237 242 241 241 245 255 258 261 259 256 264 262 264 261 251 246 244 241 242 223 219 237 238 241 244 nan nan nan nan nan nan nan nan nan nan nan nan nan nan nan nan nan nan nan nan nan nan nan nan nan nan nan nan nan nan nan nan nan nan nan nan nan nan nan nan nan nan nan nan nan nan nan nan
nan nan nan nan nan nan nan nan 244 245 242 nan 243 244 244 247 nan 259 256 253 nan 255 261 264 267 263 256 241 232 234 240 243 221 223 237 242 246 246 244 244 243 nan nan nan nan nan nan nan nan nan nan nan nan nan nan nan nan nan nan nan nan nan nan nan nan nan nan nan nan nan nan nan nan nan nan nan nan nan nan nan nan nan nan nan nan
nan nan nan nan nan nan nan nan nan 243 242 nan nan 245 247 247 250 253 254 253 250 249 nan nan nan 255 253 242 233 233 241 244 245 nan 236 243 244 241 240 242 243 245 247 248 nan nan 250 nan nan nan nan nan nan nan nan nan nan nan nan nan nan nan nan nan nan nan nan nan nan nan nan nan nan nan nan nan nan nan nan nan nan nan nan nan nan
233 231 232 nan nan nan nan nan nan 240 nan nan nan 246 246 nan nan 249 250 248 247 245 245 nan nan 246 243 239 239 243 240 241 251 254 246 238 235 234 231 235 242 247 244 246 251 253 nan 249 251 nan nan nan nan nan nan nan nan nan nan nan nan nan nan nan nan nan nan nan nan nan nan nan nan nan nan nan nan nan nan nan nan nan nan nan nan
238 nan nan nan nan nan nan nan nan nan nan nan nan nan nan nan nan nan 247 247 246 243 nan nan nan nan 237 235 233 234 235 238 245 246 241 239 238 235 234 236 234 238 243 248 247 247 249 251 254 255 255 256 nan nan nan nan nan nan nan nan nan nan nan nan nan 302 302 303 nan 297 nan nan nan nan nan nan nan nan nan nan nan nan nan nan nan
nan nan nan nan nan nan nan nan nan nan nan nan nan nan nan nan nan nan nan nan nan nan nan 240 nan nan nan 234 235 nan 238 242 245 243 239 237 237 234 235 236 240 242 241 239 240 242 245 251 253 254 257 258 260 264 267 269 nan nan nan nan nan nan nan nan nan 293 298 302 301 296 294 291 285 282 282 281 283 284 282 282 283 nan nan nan nan
nan nan nan nan nan nan nan nan nan nan nan nan nan nan nan nan nan nan nan nan nan nan nan nan nan nan nan 238 240 nan nan nan nan nan nan nan nan nan nan 240 243 242 243 244 244 248 249 249 254 258 262 261 263 271 271 269 271 272 276 275 nan nan nan nan nan 288 294 298 297 297 295 294 289 285 283 284 nan nan nan nan nan nan nan nan nan
nan nan nan nan nan nan nan nan nan nan nan nan nan nan nan nan nan nan nan nan nan nan nan nan nan nan nan nan nan nan nan nan nan nan nan nan nan nan nan nan nan nan nan nan nan nan nan nan nan 260 261 261 261 266 273 273 273 274 271 270 269 268 267 270 277 282 288 291 290 288 286 286 287 287 291 nan nan nan nan 289 nan nan nan nan nan
nan nan nan nan nan nan nan nan nan nan nan nan nan nan nan nan nan nan nan nan nan nan nan nan nan nan nan nan nan nan nan nan nan nan nan nan nan nan nan nan nan nan nan nan nan nan nan nan nan nan nan nan 261 261 266 269 269 273 274 271 269 265 263 263 266 271 277 284 290 296 290 284 nan 284 nan nan nan nan nan nan nan nan nan nan nan
nan nan nan nan nan nan nan nan nan nan nan nan nan nan nan nan nan nan nan nan nan nan nan nan nan nan nan nan nan nan nan nan nan nan nan nan nan nan nan nan nan nan nan nan nan nan nan nan nan nan nan nan nan 261 266 269 269 271 273 271 269 266 263 264 269 275 280 283 287 292 299 293 286 286 nan nan nan nan nan nan nan nan nan nan nan
nan nan nan nan nan nan nan nan nan nan nan nan nan nan nan nan nan nan nan nan nan nan nan nan nan nan nan nan nan nan nan nan nan nan nan nan nan nan nan nan nan nan nan nan nan nan nan nan nan nan nan nan nan nan nan 267 269 271 275 272 269 267 267 268 271 275 278 280 286 289 288 289 285 288 291 nan nan nan nan nan nan nan nan nan nan
nan nan nan nan nan nan nan nan nan nan nan nan nan nan nan nan nan nan nan nan nan nan nan nan nan nan nan nan nan nan nan nan nan nan nan nan nan nan nan nan nan nan nan nan nan nan nan nan nan nan nan nan nan nan nan nan 272 272 276 277 271 272 271 271 272 275 278 283 286 289 289 288 289 288 nan nan nan nan nan nan nan nan nan nan nan
nan nan nan nan nan nan nan nan nan nan nan nan nan nan nan nan nan nan nan nan nan nan nan nan nan nan nan nan nan nan nan nan nan nan nan nan nan nan nan nan nan nan nan nan nan nan nan nan nan nan nan nan nan nan nan nan nan 277 280 285 279 278 280 277 276 276 279 281 286 288 288 289 290 289 nan 288 289 290 290 nan nan nan nan nan nan
nan nan nan nan nan nan nan nan nan nan nan nan nan nan nan nan nan nan nan nan nan nan nan nan nan nan nan nan nan nan nan nan nan nan nan nan nan nan nan nan nan nan nan nan nan nan nan nan nan nan nan nan nan nan nan nan nan nan nan 280 286 283 283 280 279 279 281 283 283 285 286 288 nan nan nan 291 291 nan nan nan nan nan nan nan nan
nan nan nan nan nan nan nan nan nan nan nan nan nan nan nan nan nan nan nan nan nan nan nan nan nan nan nan nan nan nan nan nan nan nan nan nan nan nan nan nan nan nan nan nan nan nan nan nan nan nan nan nan nan nan nan nan nan nan nan nan nan 283 282 280 279 279 278 280 281 282 283 286 286 287 287 287 nan nan nan nan nan nan nan nan nan
nan nan nan nan nan nan nan nan nan nan nan nan nan nan nan nan nan nan nan nan nan nan nan nan nan nan nan nan nan nan nan nan nan nan nan nan nan nan nan nan nan nan nan nan nan nan nan nan nan nan nan nan nan nan nan nan nan nan nan nan nan nan nan 281 277 276 277 279 281 283 284 285 284 283 281 nan nan nan nan nan nan nan nan nan nan
nan nan nan nan nan nan nan nan nan nan nan nan nan nan nan nan nan nan nan nan nan nan nan nan nan nan nan nan nan nan nan nan nan nan nan nan nan nan nan nan nan nan nan nan nan nan nan nan nan nan nan nan nan nan nan nan nan nan nan nan nan nan nan 277 280 277 279 281 282 283 284 282 280 nan nan nan nan nan nan nan nan nan nan nan nan
nan nan nan nan nan nan nan nan nan nan nan nan nan nan nan nan nan nan nan nan nan nan nan nan nan nan nan nan nan nan nan nan nan nan nan nan nan nan nan nan nan nan nan nan nan nan nan nan nan nan nan nan nan nan nan nan nan nan nan nan nan nan nan 270 273 276 277 279 281 281 281 283 282 nan nan nan nan nan nan nan nan nan nan nan nan
nan nan nan nan nan nan nan nan nan nan nan nan nan nan nan nan nan nan nan nan nan nan nan nan nan nan nan nan nan nan nan nan nan nan nan nan nan nan nan nan nan nan nan nan nan nan nan nan nan nan nan nan nan nan nan nan nan nan nan nan nan nan nan 274 275 275 276 278 278 276 277 276 nan nan nan nan nan nan nan nan nan nan nan nan nan
nan nan nan nan nan nan nan nan nan nan nan nan nan nan nan nan nan nan nan nan nan nan nan nan nan nan nan nan nan nan nan nan nan nan nan nan nan nan nan nan nan nan nan nan nan nan nan nan nan nan nan nan nan nan nan nan nan nan nan nan nan nan nan nan 269 270 274 272 275 277 277 277 nan nan 272 273 nan nan nan nan nan nan nan nan nan
nan nan nan nan nan nan nan nan nan nan nan nan nan nan nan nan nan nan nan nan nan nan nan nan nan nan nan nan nan nan nan nan nan nan nan nan nan nan nan nan nan nan nan nan nan nan nan nan nan nan nan nan nan nan nan nan nan nan nan nan nan nan nan nan nan 262 259 269 278 279 280 280 276 271 271 272 nan nan nan nan nan nan nan nan nan
nan nan nan nan nan nan nan nan nan nan nan nan nan nan nan nan nan nan nan nan nan nan nan nan nan nan nan nan nan nan nan nan nan nan nan nan nan nan nan nan nan nan nan nan nan nan nan nan nan nan nan nan nan nan nan nan nan nan nan nan nan nan nan nan nan nan nan nan nan nan nan 278 279 275 271 272 nan nan nan nan nan nan nan nan nan